| time (UTC) | temp F | wind direction | speed MPH | gust MPH | rain 1hr in | rain 24hr in | rain mn in | humidity % | barometer mb |
| 20260506091327 | 41 | 360 | 0.0 | 0.0 | 0.00 | 0.00 | 0.00 | 78 | 1012.7 |
| 20260506090830 | 42 | 360 | 0.0 | 0.0 | 0.00 | 0.00 | 0.00 | 78 | 1012.7 |
| 20260506090355 | 42 | 360 | 0.0 | 0.0 | 0.00 | 0.00 | 0.00 | 78 | 1012.6 |
| 20260506085853 | 42 | 360 | 0.0 | 0.0 | 0.00 | 0.00 | 0.00 | 78 | 1012.6 |
| 20260506085335 | 42 | 360 | 0.0 | 0.0 | 0.00 | 0.00 | 0.00 | 78 | 1012.5 |
| 20260506084818 | 42 | 360 | 0.0 | 0.0 | 0.00 | 0.00 | 0.00 | 77 | 1012.5 |
| 20260506084321 | 42 | 360 | 0.0 | 0.0 | 0.00 | 0.00 | 0.00 | 78 | 1012.5 |
| 20260506083847 | 42 | 360 | 0.0 | 0.0 | 0.00 | 0.00 | 0.00 | 78 | 1012.5 |
| 20260506083329 | 42 | 360 | 0.0 | 0.0 | 0.00 | 0.00 | 0.00 | 78 | 1012.6 |
| 20260506082832 | 42 | 360 | 0.0 | 0.0 | 0.00 | 0.00 | 0.00 | 79 | 1012.5 |
| 20260506082334 | 43 | 360 | 0.0 | 0.0 | 0.00 | 0.00 | 0.00 | 78 | 1012.4 |
| 20260506081833 | 43 | 360 | 0.0 | 0.0 | 0.00 | 0.00 | 0.00 | 78 | 1012.4 |
| 20260506081337 | 43 | 360 | 0.0 | 0.0 | 0.00 | 0.00 | 0.00 | 78 | 1012.4 |
| 20260506080819 | 43 | 360 | 0.0 | 0.0 | 0.00 | 0.00 | 0.00 | 76 | 1012.5 |
| 20260506080321 | 43 | 360 | 0.0 | 0.0 | 0.00 | 0.00 | 0.00 | 77 | 1012.5 |
| 20260506073320 | 44 | 360 | 0.0 | 0.0 | 0.00 | 0.00 | 0.00 | 74 | 1012.5 |
| 20260506072822 | 44 | 360 | 0.0 | 0.0 | 0.00 | 0.00 | 0.00 | 73 | 1012.5 |
| 20260506072324 | 44 | 360 | 0.0 | 0.0 | 0.00 | 0.00 | 0.00 | 72 | 1012.4 |
| 20260506071828 | 44 | 360 | 0.0 | 0.0 | 0.00 | 0.00 | 0.00 | 73 | 1012.5 |
| 20260506071331 | 44 | 360 | 0.0 | 0.0 | 0.00 | 0.00 | 0.00 | 70 | 1012.5 |
| 20260506070833 | 44 | 360 | 0.0 | 0.0 | 0.00 | 0.00 | 0.00 | 69 | 1012.3 |
| 20260506070337 | 44 | 360 | 0.0 | 0.0 | 0.00 | 0.00 | 0.00 | 68 | 1012.3 |
| 20260506062333 | 45 | 360 | 0.0 | 0.0 | 0.00 | 0.00 | 0.00 | 62 | 1012.0 |
| 20260506061836 | 46 | 360 | 0.0 | 0.0 | 0.00 | 0.00 | 0.00 | 61 | 1012.1 |
| 20260506061338 | 46 | 360 | 0.0 | 0.0 | 0.00 | 0.00 | 0.00 | 62 | 1012.1 |
| 20260506060819 | 46 | 360 | 0.0 | 0.0 | 0.00 | 0.00 | 0.00 | 61 | 1012.0 |
| 20260506060343 | 46 | 360 | 0.0 | 0.0 | 0.00 | 0.00 | 0.00 | 61 | 1012.0 |
| 20260506051324 | 49 | 360 | 0.0 | 0.0 | 0.00 | 0.00 | 0.00 | 52 | 1011.6 |
| 20260506050828 | 49 | 360 | 0.0 | 0.0 | 0.00 | 0.00 | 0.00 | 53 | 1011.6 |
| 20260506050331 | 49 | 360 | 0.0 | 0.0 | 0.00 | 0.00 | 0.00 | 53 | 1011.4 |
| 20260506044832 | 50 | 360 | 0.0 | 1.0 | 0.00 | 0.00 | 0.00 | 55 | 1011.4 |
| 20260506044334 | 50 | 360 | 0.0 | 0.0 | 0.00 | 0.00 | 0.00 | 55 | 1011.3 |
| 20260506043837 | 50 | 360 | 0.0 | 0.0 | 0.00 | 0.00 | 0.00 | 54 | 1011.2 |
| 20260506043401 | 50 | 360 | 0.0 | 0.0 | 0.00 | 0.00 | 0.00 | 54 | 1011.1 |
| 20260506042842 | 50 | 360 | 0.0 | 0.0 | 0.00 | 0.00 | 0.00 | 55 | 1010.8 |
| 20260506042324 | 50 | 360 | 0.0 | 1.0 | 0.00 | 0.00 | 0.00 | 56 | 1010.8 |
| 20260506041828 | 50 | 360 | 0.0 | 1.0 | 0.00 | 0.00 | 0.00 | 54 | 1011.0 |
| 20260506041332 | 50 | 360 | 0.0 | 1.0 | 0.00 | 0.00 | 0.00 | 56 | 1011.0 |
| 20260506040856 | 50 | 360 | 0.0 | 0.0 | 0.00 | 0.00 | 0.00 | 58 | 1010.9 |
| 20260506040334 | 51 | 360 | 0.0 | 0.0 | 0.00 | 0.00 | 0.00 | 61 | 1011.0 |
| 20260506035835 | 51 | 360 | 0.0 | 0.0 | 0.00 | 0.00 | 0.00 | 62 | 1010.8 |
| 20260506035317 | 51 | 360 | 0.0 | 0.0 | 0.00 | 0.00 | 0.00 | 61 | 1010.9 |
| 20260506034821 | 51 | 360 | 0.0 | 0.0 | 0.00 | 0.00 | 0.00 | 61 | 1010.9 |
| 20260506034323 | 51 | 360 | 0.0 | 0.0 | 0.00 | 0.00 | 0.00 | 62 | 1010.8 |
| 20260506033826 | 51 | 360 | 0.0 | 0.0 | 0.00 | 0.00 | 0.00 | 62 | 1010.8 |
| 20260506033328 | 51 | 360 | 0.0 | 1.0 | 0.00 | 0.00 | 0.00 | 64 | 1010.8 |
| 20260506032853 | 51 | 360 | 0.0 | 2.0 | 0.00 | 0.00 | 0.00 | 63 | 1010.7 |
| 20260506032333 | 51 | 360 | 0.0 | 2.0 | 0.00 | 0.00 | 0.00 | 61 | 1010.6 |
| 20260506031836 | 52 | 360 | 0.0 | 0.0 | 0.00 | 0.00 | 0.00 | 61 | 1010.6 |
| 20260506031322 | 52 | 360 | 0.0 | 2.0 | 0.00 | 0.00 | 0.00 | 58 | 1010.6 |
| 20260506030850 | 51 | 360 | 0.0 | 2.0 | 0.00 | 0.00 | 0.00 | 58 | 1010.6 |
| 20260506030350 | 51 | 360 | 0.0 | 2.0 | 0.00 | 0.00 | 0.00 | 58 | 1010.6 |
| 20260506025834 | 51 | 360 | 0.0 | 2.0 | 0.00 | 0.00 | 0.00 | 61 | 1010.4 |
| 20260506025337 | 51 | 360 | 0.0 | 1.0 | 0.00 | 0.00 | 0.00 | 58 | 1010.3 |
| 20260506024817 | 51 | 360 | 0.0 | 1.0 | 0.00 | 0.00 | 0.00 | 59 | 1010.3 |
| 20260506024321 | 51 | 360 | 0.0 | 1.0 | 0.00 | 0.00 | 0.00 | 58 | 1010.3 |
| 20260506023844 | 51 | 360 | 0.0 | 1.0 | 0.00 | 0.00 | 0.00 | 58 | 1010.2 |
| 20260506023327 | 51 | 360 | 0.0 | 1.0 | 0.00 | 0.00 | 0.00 | 60 | 1009.9 |
| 20260506022833 | 51 | 360 | 0.0 | 1.0 | 0.00 | 0.00 | 0.00 | 59 | 1010.0 |
| 20260506022336 | 51 | 360 | 0.0 | 1.0 | 0.00 | 0.00 | 0.00 | 63 | 1009.8 |
| 20260506021819 | 51 | 360 | 0.0 | 1.0 | 0.00 | 0.00 | 0.00 | 60 | 1009.9 |
| 20260506021323 | 51 | 360 | 0.0 | 1.0 | 0.00 | 0.00 | 0.00 | 63 | 1009.7 |
| 20260506020826 | 51 | 360 | 0.0 | 1.0 | 0.00 | 0.00 | 0.00 | 62 | 1009.7 |
| 20260506020326 | 51 | 360 | 0.0 | 1.0 | 0.00 | 0.00 | 0.00 | 61 | 1009.4 |
| 20260506015843 | 52 | 360 | 0.0 | 1.0 | 0.00 | 0.00 | 0.00 | 61 | 1009.5 |
| 20260506015324 | 52 | 360 | 0.0 | 1.0 | 0.00 | 0.00 | 0.00 | 62 | 1009.4 |
| 20260506014827 | 52 | 360 | 0.0 | 0.0 | 0.00 | 0.00 | 0.00 | 58 | 1009.4 |
| 20260506014330 | 52 | 360 | 0.0 | 0.0 | 0.00 | 0.00 | 0.00 | 57 | 1009.4 |
| 20260506013833 | 52 | 360 | 0.0 | 0.0 | 0.00 | 0.00 | 0.00 | 58 | 1009.2 |
| 20260506013337 | 53 | 360 | 0.0 | 0.0 | 0.00 | 0.00 | 0.00 | 57 | 1009.3 |
| 20260506012820 | 53 | 360 | 0.0 | 0.0 | 0.00 | 0.00 | 0.00 | 56 | 1009.2 |
| 20260506012322 | 53 | 360 | 0.0 | 0.0 | 0.00 | 0.00 | 0.00 | 55 | 1009.2 |
| 20260506011827 | 54 | 360 | 0.0 | 0.0 | 0.00 | 0.00 | 0.00 | 58 | 1009.2 |
| 20260506011330 | 54 | 360 | 0.0 | 0.0 | 0.00 | 0.00 | 0.00 | 56 | 1009.2 |
| 20260506010832 | 54 | 360 | 0.0 | 0.0 | 0.00 | 0.00 | 0.00 | 53 | 1009.1 |
| 20260506010337 | 54 | 360 | 0.0 | 0.0 | 0.00 | 0.00 | 0.00 | 50 | 1009.0 |
| 20260506005841 | 55 | 360 | 0.0 | 0.0 | 0.00 | 0.00 | 0.00 | 51 | 1009.1 |
| 20260506005318 | 55 | 94 | 0.0 | 0.0 | 0.00 | 0.00 | 0.00 | 50 | 1009.1 |
| 20260506004821 | 55 | 94 | 0.0 | 0.0 | 0.00 | 0.00 | 0.00 | 48 | 1009.0 |
| 20260506004325 | 55 | 94 | 0.0 | 0.0 | 0.00 | 0.00 | 0.00 | 47 | 1009.1 |
| 20260506003830 | 56 | 94 | 0.0 | 0.0 | 0.00 | 0.00 | 0.00 | 46 | 1009.0 |
| 20260506003334 | 56 | 95 | 0.0 | 0.0 | 0.00 | 0.00 | 0.00 | 45 | 1008.9 |
| 20260506002816 | 56 | 94 | 0.0 | 1.0 | 0.00 | 0.00 | 0.00 | 46 | 1008.9 |
| 20260506002358 | 56 | 94 | 0.0 | 1.0 | 0.00 | 0.02 | 0.00 | 44 | 1008.8 |
| 20260506001818 | 57 | 197 | 0.0 | 1.0 | 0.00 | 0.02 | 0.00 | 44 | 1008.9 |
| 20260506001321 | 57 | 223 | 0.0 | 1.0 | 0.00 | 0.02 | 0.00 | 41 | 1008.9 |
| 20260506000843 | 57 | 96 | 0.0 | 1.0 | 0.00 | 0.02 | 0.00 | 45 | 1008.9 |
| 20260506000326 | 57 | 96 | 0.0 | 1.0 | 0.00 | 0.02 | 0.00 | 44 | 1009.0 |
| 20260505235831 | 57 | 230 | 0.0 | 1.0 | 0.00 | 0.02 | 0.00 | 45 | 1008.9 |
| 20260505235330 | 57 | 181 | 0.0 | 1.0 | 0.00 | 0.02 | 0.00 | 42 | 1008.9 |
| 20260505234834 | 57 | 333 | 0.0 | 1.0 | 0.00 | 0.02 | 0.00 | 43 | 1008.9 |
| 20260505234334 | 57 | 158 | 0.0 | 1.0 | 0.00 | 0.02 | 0.00 | 51 | 1009.0 |
| 20260505233817 | 57 | 195 | 0.0 | 0.0 | 0.00 | 0.02 | 0.00 | 46 | 1008.9 |
| 20260505233320 | 57 | 195 | 0.0 | 1.0 | 0.00 | 0.02 | 0.00 | 45 | 1008.8 |
| 20260505232823 | 57 | 195 | 0.0 | 1.0 | 0.00 | 0.02 | 0.00 | 41 | 1008.8 |
| 20260505232328 | 57 | 132 | 0.0 | 1.0 | 0.00 | 0.02 | 0.00 | 42 | 1008.8 |
| 20260505231826 | 57 | 200 | 0.0 | 1.0 | 0.00 | 0.02 | 0.00 | 40 | 1008.9 |
| 20260505231331 | 57 | 201 | 0.0 | 1.0 | 0.00 | 0.02 | 0.00 | 45 | 1008.8 |
| 20260505230854 | 57 | 201 | 0.0 | 1.0 | 0.00 | 0.02 | 0.00 | 39 | 1008.9 |
| 20260505230336 | 57 | 201 | 0.0 | 1.0 | 0.00 | 0.02 | 0.00 | 42 | 1009.0 |
| 20260505225840 | 57 | 229 | 0.0 | 1.0 | 0.00 | 0.02 | 0.00 | 39 | 1009.1 |
| 20260505225323 | 57 | 200 | 0.0 | 4.0 | 0.00 | 0.02 | 0.00 | 39 | 1009.1 |
| 20260505224823 | 57 | 238 | 0.0 | 4.0 | 0.00 | 0.02 | 0.00 | 39 | 1009.2 |
| 20260505224327 | 57 | 246 | 0.0 | 2.0 | 0.00 | 0.02 | 0.00 | 41 | 1009.3 |
| 20260505223827 | 57 | 235 | 1.0 | 2.0 | 0.00 | 0.02 | 0.00 | 39 | 1009.3 |
| 20260505223353 | 57 | 256 | 0.0 | 3.0 | 0.00 | 0.02 | 0.00 | 40 | 1009.4 |
| 20260505222854 | 57 | 233 | 1.0 | 3.0 | 0.00 | 0.02 | 0.00 | 40 | 1009.3 |
| 20260505222317 | 57 | 239 | 1.0 | 3.0 | 0.00 | 0.05 | 0.00 | 40 | 1009.4 |
| 20260505221819 | 57 | 351 | 0.0 | 2.0 | 0.00 | 0.05 | 0.00 | 43 | 1009.4 |
| 20260505221341 | 57 | 355 | 0.0 | 2.0 | 0.00 | 0.05 | 0.00 | 39 | 1009.4 |
| 20260505220820 | 57 | 225 | 0.0 | 5.0 | 0.00 | 0.05 | 0.00 | 42 | 1009.5 |
| 20260505220325 | 57 | 310 | 1.0 | 5.0 | 0.00 | 0.05 | 0.00 | 39 | 1009.5 |
| 20260505215846 | 57 | 50 | 1.0 | 4.0 | 0.00 | 0.05 | 0.00 | 42 | 1009.5 |
| 20260505215349 | 57 | 234 | 0.0 | 5.0 | 0.00 | 0.05 | 0.00 | 39 | 1009.6 |
| 20260505214831 | 57 | 235 | 1.0 | 5.0 | 0.00 | 0.05 | 0.00 | 39 | 1009.8 |
| 20260505214333 | 57 | 186 | 2.0 | 4.0 | 0.00 | 0.05 | 0.00 | 40 | 1009.7 |
| 20260505213817 | 57 | 316 | 0.0 | 3.0 | 0.00 | 0.05 | 0.00 | 45 | 1009.6 |
| 20260505213320 | 57 | 306 | 1.0 | 3.0 | 0.00 | 0.05 | 0.00 | 39 | 1009.7 |
| 20260505212824 | 57 | 194 | 0.0 | 3.0 | 0.00 | 0.05 | 0.00 | 41 | 1009.7 |
| 20260505212329 | 56 | 231 | 0.0 | 5.0 | 0.00 | 0.05 | 0.00 | 40 | 1009.8 |
| 20260505211835 | 56 | 248 | 1.0 | 5.0 | 0.00 | 0.05 | 0.00 | 40 | 1009.9 |
| 20260505211337 | 56 | 253 | 1.0 | 4.0 | 0.00 | 0.05 | 0.00 | 41 | 1009.9 |
| 20260505210833 | 56 | 304 | 1.0 | 4.0 | 0.00 | 0.05 | 0.00 | 43 | 1009.9 |
| 20260505210358 | 56 | 282 | 1.0 | 3.0 | 0.00 | 0.05 | 0.00 | 41 | 1009.9 |
| 20260505205829 | 56 | 325 | 0.0 | 4.0 | 0.00 | 0.05 | 0.00 | 38 | 1009.9 |
| 20260505205332 | 56 | 325 | 1.0 | 4.0 | 0.00 | 0.05 | 0.00 | 38 | 1010.0 |
| 20260505204836 | 57 | 303 | 1.0 | 4.0 | 0.00 | 0.05 | 0.00 | 41 | 1010.0 |
| 20260505204318 | 57 | 294 | 1.0 | 6.0 | 0.00 | 0.05 | 0.00 | 39 | 1009.9 |
| 20260505203820 | 56 | 254 | 0.0 | 3.0 | 0.00 | 0.05 | 0.00 | 42 | 1010.1 |
| 20260505203324 | 57 | 39 | 1.0 | 3.0 | 0.00 | 0.05 | 0.00 | 39 | 1010.2 |
| 20260505202825 | 57 | 314 | 1.0 | 4.0 | 0.00 | 0.05 | 0.00 | 36 | 1010.3 |
| 20260505202328 | 56 | 319 | 1.0 | 4.0 | 0.00 | 0.05 | 0.00 | 40 | 1010.3 |
| 20260505201852 | 56 | 311 | 1.0 | 3.0 | 0.00 | 0.05 | 0.00 | 41 | 1010.3 |
| 20260505201355 | 57 | 310 | 1.0 | 5.0 | 0.00 | 0.05 | 0.00 | 37 | 1010.3 |
| 20260505200856 | 56 | 341 | 1.0 | 5.0 | 0.00 | 0.05 | 0.00 | 42 | 1010.3 |
| 20260505200317 | 56 | 336 | 1.0 | 4.0 | 0.00 | 0.05 | 0.00 | 39 | 1010.2 |
| 20260505195817 | 56 | 285 | 0.0 | 4.0 | 0.00 | 0.05 | 0.00 | 41 | 1010.3 |
| 20260505195344 | 56 | 275 | 1.0 | 4.0 | 0.00 | 0.05 | 0.00 | 38 | 1010.4 |
| 20260505194828 | 57 | 323 | 1.0 | 4.0 | 0.00 | 0.05 | 0.00 | 36 | 1010.5 |
| 20260505194332 | 57 | 332 | 2.0 | 6.0 | 0.00 | 0.05 | 0.00 | 38 | 1010.5 |
| 20260505193856 | 57 | 285 | 2.0 | 6.0 | 0.00 | 0.05 | 0.00 | 37 | 1010.4 |
| 20260505193319 | 57 | 247 | 0.0 | 3.0 | 0.00 | 0.05 | 0.00 | 42 | 1010.4 |
| 20260505192822 | 57 | 331 | 1.0 | 5.0 | 0.00 | 0.05 | 0.00 | 39 | 1010.5 |
| 20260505192327 | 57 | 360 | 1.0 | 4.0 | 0.00 | 0.05 | 0.00 | 37 | 1010.5 |
| 20260505191830 | 56 | 338 | 0.0 | 4.0 | 0.00 | 0.05 | 0.00 | 40 | 1010.5 |
| 20260505191334 | 56 | 289 | 0.0 | 4.0 | 0.00 | 0.05 | 0.00 | 41 | 1010.7 |
| 20260505190818 | 56 | 309 | 2.0 | 4.0 | 0.00 | 0.05 | 0.00 | 37 | 1010.8 |
| 20260505190345 | 56 | 319 | 1.0 | 5.0 | 0.00 | 0.05 | 0.00 | 38 | 1010.8 |
| 20260505185822 | 56 | 209 | 1.0 | 6.0 | 0.00 | 0.05 | 0.00 | 40 | 1010.8 |
| 20260505185326 | 56 | 317 | 1.0 | 6.0 | 0.00 | 0.05 | 0.00 | 39 | 1010.8 |
| 20260505184829 | 56 | 231 | 0.0 | 3.0 | 0.00 | 0.05 | 0.00 | 39 | 1010.7 |
| 20260505184334 | 56 | 280 | 0.0 | 5.0 | 0.00 | 0.05 | 0.00 | 40 | 1010.6 |
| 20260505183832 | 56 | 349 | 2.0 | 5.0 | 0.00 | 0.05 | 0.00 | 38 | 1010.7 |
| 20260505183337 | 56 | 323 | 0.0 | 3.0 | 0.00 | 0.05 | 0.00 | 39 | 1010.8 |
| 20260505182820 | 56 | 295 | 0.0 | 2.0 | 0.00 | 0.05 | 0.00 | 44 | 1010.8 |
| 20260505182325 | 56 | 246 | 0.0 | 2.0 | 0.00 | 0.05 | 0.00 | 43 | 1010.8 |
| 20260505181827 | 56 | 264 | 0.0 | 3.0 | 0.00 | 0.05 | 0.00 | 46 | 1010.9 |
| 20260505181330 | 56 | 257 | 1.0 | 3.0 | 0.00 | 0.05 | 0.00 | 38 | 1010.8 |
| 20260505180832 | 55 | 285 | 1.0 | 5.0 | 0.00 | 0.05 | 0.00 | 39 | 1010.8 |
| 20260505180357 | 55 | 255 | 1.0 | 5.0 | 0.00 | 0.05 | 0.00 | 39 | 1010.8 |
| 20260505175818 | 55 | 259 | 1.0 | 3.0 | 0.00 | 0.05 | 0.00 | 42 | 1010.9 |
| 20260505175320 | 55 | 309 | 1.0 | 3.0 | 0.00 | 0.05 | 0.00 | 40 | 1010.9 |
| 20260505174819 | 55 | 301 | 1.0 | 3.0 | 0.00 | 0.05 | 0.00 | 38 | 1011.0 |
| 20260505174323 | 55 | 296 | 1.0 | 3.0 | 0.00 | 0.05 | 0.00 | 45 | 1011.0 |
| 20260505173824 | 55 | 350 | 0.0 | 3.0 | 0.00 | 0.05 | 0.00 | 42 | 1010.9 |
| 20260505173329 | 55 | 351 | 0.0 | 3.0 | 0.00 | 0.05 | 0.00 | 45 | 1010.9 |
| 20260505172831 | 55 | 308 | 1.0 | 7.0 | 0.00 | 0.05 | 0.00 | 41 | 1010.9 |
| 20260505172335 | 55 | 355 | 1.0 | 4.0 | 0.00 | 0.05 | 0.00 | 41 | 1010.9 |
| 20260505171817 | 55 | 340 | 1.0 | 2.0 | 0.00 | 0.05 | 0.00 | 41 | 1010.9 |
| 20260505171345 | 55 | 303 | 0.0 | 2.0 | 0.00 | 0.05 | 0.00 | 43 | 1010.9 |
| 20260505170827 | 55 | 302 | 1.0 | 3.0 | 0.00 | 0.05 | 0.00 | 38 | 1010.8 |
| 20260505170330 | 55 | 325 | 0.0 | 3.0 | 0.00 | 0.05 | 0.00 | 41 | 1010.9 |
| 20260505165837 | 55 | 5 | 0.0 | 3.0 | 0.00 | 0.05 | 0.00 | 51 | 1010.8 |
| 20260505165319 | 55 | 355 | 1.0 | 3.0 | 0.00 | 0.05 | 0.00 | 42 | 1010.8 |
| 20260505164823 | 55 | 325 | 0.0 | 3.0 | 0.00 | 0.05 | 0.00 | 44 | 1010.9 |
| 20260505164321 | 55 | 333 | 0.0 | 1.0 | 0.00 | 0.05 | 0.00 | 43 | 1010.8 |
| 20260505163822 | 54 | 11 | 0.0 | 2.0 | 0.00 | 0.05 | 0.00 | 44 | 1010.8 |
| 20260505163347 | 54 | 13 | 0.0 | 2.0 | 0.00 | 0.05 | 0.00 | 41 | 1010.8 |
| 20260505162830 | 54 | 323 | 0.0 | 1.0 | 0.00 | 0.05 | 0.00 | 42 | 1010.7 |
| 20260505162335 | 54 | 313 | 0.0 | 2.0 | 0.00 | 0.05 | 0.00 | 47 | 1010.6 |
| 20260505161856 | 54 | 304 | 0.0 | 7.0 | 0.00 | 0.05 | 0.00 | 44 | 1010.7 |
| 20260505161317 | 54 | 285 | 2.0 | 7.0 | 0.00 | 0.05 | 0.00 | 44 | 1010.7 |
| 20260505160819 | 54 | 323 | 0.0 | 2.0 | 0.00 | 0.05 | 0.00 | 44 | 1010.6 |
| 20260505160322 | 54 | 318 | 0.0 | 2.0 | 0.00 | 0.05 | 0.00 | 42 | 1010.6 |
| 20260505153326 | 55 | 360 | 0.0 | 2.0 | 0.00 | 0.05 | 0.00 | 46 | 1010.3 |
| 20260505152828 | 55 | 337 | 0.0 | 2.0 | 0.00 | 0.05 | 0.00 | 43 | 1010.2 |
| 20260505152333 | 55 | 281 | 0.0 | 2.0 | 0.00 | 0.05 | 0.00 | 43 | 1010.2 |
| 20260505151817 | 55 | 338 | 0.0 | 2.0 | 0.00 | 0.05 | 0.00 | 45 | 1010.3 |
| 20260505151341 | 55 | 350 | 0.0 | 2.0 | 0.00 | 0.05 | 0.00 | 42 | 1010.0 |
| 20260505150822 | 54 | 340 | 0.0 | 2.0 | 0.00 | 0.05 | 0.00 | 44 | 1010.0 |
| 20260505150323 | 54 | 334 | 0.0 | 2.0 | 0.00 | 0.05 | 0.00 | 47 | 1010.0 |
| 20260505140320 | 52 | 308 | 0.0 | 2.0 | 0.00 | 0.05 | 0.00 | 55 | 1009.2 |
| 20260505124837 | 46 | 360 | 0.0 | 0.0 | 0.00 | 0.05 | 0.00 | 80 | 1010.6 |
| 20260505124320 | 46 | 360 | 0.0 | 0.0 | 0.00 | 0.05 | 0.00 | 80 | 1010.8 |
| 20260505123824 | 46 | 360 | 0.0 | 0.0 | 0.00 | 0.05 | 0.00 | 80 | 1010.8 |
| 20260505123345 | 46 | 360 | 0.0 | 0.0 | 0.00 | 0.05 | 0.00 | 80 | 1010.6 |
| 20260505122827 | 46 | 360 | 0.0 | 0.0 | 0.00 | 0.05 | 0.00 | 81 | 1010.7 |
| 20260505122350 | 46 | 360 | 0.0 | 0.0 | 0.00 | 0.05 | 0.00 | 80 | 1010.6 |
| 20260505121831 | 46 | 360 | 0.0 | 0.0 | 0.00 | 0.05 | 0.00 | 80 | 1010.5 |
| 20260505121333 | 46 | 360 | 0.0 | 0.0 | 0.00 | 0.05 | 0.00 | 80 | 1010.5 |
| 20260505120857 | 46 | 360 | 0.0 | 0.0 | 0.00 | 0.05 | 0.00 | 80 | 1010.7 |
| 20260505120337 | 45 | 360 | 0.0 | 0.0 | 0.00 | 0.05 | 0.00 | 77 | 1010.5 |
| 20260505115818 | 45 | 360 | 0.0 | 0.0 | 0.00 | 0.05 | 0.00 | 76 | 1010.5 |
| 20260505115322 | 46 | 360 | 0.0 | 0.0 | 0.00 | 0.05 | 0.00 | 75 | 1010.4 |
| 20260505114826 | 46 | 360 | 0.0 | 0.0 | 0.00 | 0.05 | 0.00 | 76 | 1010.3 |
| 20260505114327 | 46 | 360 | 0.0 | 0.0 | 0.00 | 0.05 | 0.00 | 74 | 1010.0 |
| 20260505113826 | 46 | 360 | 0.0 | 0.0 | 0.00 | 0.05 | 0.00 | 70 | 1010.1 |
| 20260505113327 | 47 | 360 | 0.0 | 1.0 | 0.00 | 0.05 | 0.00 | 67 | 1009.9 |
| 20260505112831 | 47 | 360 | 0.0 | 1.0 | 0.00 | 0.05 | 0.00 | 67 | 1010.1 |
| 20260505112335 | 47 | 360 | 0.0 | 4.0 | 0.00 | 0.05 | 0.00 | 64 | 1010.0 |
| 20260505111834 | 47 | 360 | 2.0 | 4.0 | 0.00 | 0.05 | 0.00 | 75 | 1009.7 |
| 20260505111317 | 47 | 360 | 0.0 | 0.0 | 0.00 | 0.05 | 0.00 | 72 | 1010.1 |
| 20260505110820 | 47 | 360 | 0.0 | 0.0 | 0.00 | 0.05 | 0.00 | 72 | 1010.0 |
| 20260505110324 | 47 | 360 | 0.0 | 0.0 | 0.00 | 0.05 | 0.00 | 71 | 1009.8 |
| 20260505101824 | 50 | 360 | 0.0 | 2.0 | 0.00 | 0.05 | 0.00 | 57 | 1009.1 |
| 20260505101327 | 50 | 360 | 0.0 | 2.0 | 0.00 | 0.05 | 0.00 | 56 | 1009.0 |
| 20260505100850 | 51 | 360 | 0.0 | 2.0 | 0.00 | 0.05 | 0.00 | 52 | 1008.5 |
| 20260505100334 | 51 | 360 | 1.0 | 2.0 | 0.00 | 0.05 | 0.00 | 48 | 1008.3 |
| 20260505095817 | 51 | 360 | 0.0 | 1.0 | 0.00 | 0.05 | 0.00 | 51 | 1007.9 |
| 20260505095322 | 51 | 360 | 0.0 | 3.0 | 0.00 | 0.05 | 0.00 | 50 | 1008.0 |
| 20260505094845 | 51 | 360 | 1.0 | 4.0 | 0.00 | 0.05 | 0.00 | 51 | 1008.0 |
| 20260505094327 | 51 | 360 | 0.0 | 4.0 | 0.00 | 0.05 | 0.00 | 50 | 1007.8 |
| 20260505093824 | 51 | 360 | 1.0 | 3.0 | 0.00 | 0.05 | 0.00 | 48 | 1007.9 |
| 20260505093327 | 51 | 360 | 0.0 | 3.0 | 0.00 | 0.05 | 0.00 | 50 | 1008.0 |
| 20260505092850 | 52 | 360 | 1.0 | 6.0 | 0.00 | 0.05 | 0.00 | 49 | 1007.8 |
| 20260505092332 | 51 | 360 | 1.0 | 6.0 | 0.00 | 0.05 | 0.00 | 50 | 1008.1 |
| 20260505091835 | 52 | 360 | 1.0 | 3.0 | 0.00 | 0.05 | 0.00 | 50 | 1007.2 |